VE1DX Weather Reports


Display with metric or nautical units.
time (UTC)temp
F
wind
direction
speed
MPH
gust
MPH
rain 1hr
in
rain 24hr
in
rain mn
in
humidity
%
barometer
mb
20260507203016 53 0.0 1.0 0.00 0.82 0.82 94 1002.0
20260507202516 53 0.0 2.0 0.00 0.82 0.82 94 1002.0
20260507202016 53 225 1.0 4.0 0.00 0.82 0.82 94 1002.0
20260507201516 53 0.0 0.0 0.00 0.82 0.82 94 1002.0
20260507201016 52 0.0 3.0 0.00 0.82 0.82 94 1002.1
20260507200516 52 0.0 1.0 0.00 0.82 0.82 94 1002.1
20260507200016 52 225 1.0 3.0 0.00 0.82 0.82 94 1002.2
20260507195516 52 225 1.0 4.0 0.00 0.82 0.82 94 1002.3
20260507195016 52 225 1.0 3.0 0.00 0.82 0.82 94 1002.2
20260507194516 51 0.0 0.0 0.00 0.82 0.82 94 1002.3
20260507194016 51 0.0 0.0 0.00 0.82 0.82 94 1002.4
20260507193516 50 0.0 0.0 0.00 0.82 0.82 94 1002.4
20260507193016 50 225 1.0 3.0 0.00 0.82 0.82 94 1002.6
20260507192516 49 0.0 1.0 0.00 0.82 0.82 94 1002.5
20260507192016 49 135 1.0 2.0 0.01 0.82 0.82 94 1002.2
20260507191516 49 0.0 2.0 0.01 0.82 0.82 94 1002.2
20260507191016 49 135 1.0 3.0 0.01 0.82 0.82 94 1002.3
20260507190515 48 135 2.0 4.0 0.01 0.82 0.82 94 1002.1
20260507190016 48 135 1.0 3.0 0.01 0.82 0.82 94 1002.2
20260507185516 48 113 1.0 2.0 0.01 0.82 0.82 94 1002.4
20260507185016 48 135 1.0 4.0 0.02 0.82 0.82 94 1002.5
20260507184516 49 113 1.0 5.0 0.02 0.82 0.82 94 1002.7
20260507184016 49 135 1.0 3.0 0.02 0.82 0.82 94 1002.5
20260507183516 49 225 1.0 3.0 0.02 0.82 0.82 94 1002.3
20260507183016 49 135 1.0 5.0 0.03 0.82 0.82 94 1002.0
20260507182516 49 158 2.0 5.0 0.05 0.82 0.82 94 1002.1
20260507182016 49 225 1.0 8.0 0.04 0.81 0.81 94 1002.2
20260507181516 49 158 1.0 4.0 0.04 0.81 0.81 94 1001.3
20260507181016 49 158 1.0 6.0 0.04 0.81 0.81 94 1001.1
20260507180516 48 135 2.0 4.0 0.04 0.81 0.81 94 1001.2
20260507180016 48 135 3.0 7.0 0.06 0.81 0.81 94 1001.4
20260507175516 48 135 2.0 5.0 0.06 0.81 0.81 94 1002.0
20260507175016 48 135 2.0 5.0 0.06 0.80 0.80 94 1002.3
20260507174516 47 113 1.0 4.0 0.06 0.80 0.80 94 1002.6
20260507174016 47 113 3.0 7.0 0.06 0.80 0.80 94 1002.8
20260507173515 47 158 2.0 4.0 0.06 0.80 0.80 94 1003.3
20260507173016 48 135 2.0 4.0 0.06 0.79 0.79 94 1003.8
20260507172516 48 158 2.0 4.0 0.04 0.77 0.77 94 1004.0
20260507172016 48 135 2.0 5.0 0.06 0.77 0.77 94 1003.7
20260507171516 49 135 2.0 6.0 0.07 0.77 0.77 94 1003.2
20260507171016 49 158 1.0 5.0 0.12 0.77 0.77 94 1003.4
20260507170516 49 135 2.0 5.0 0.17 0.77 0.77 94 1003.5
20260507170016 49 135 1.0 3.0 0.23 0.76 0.76 94 1003.6
20260507165515 49 135 1.0 3.0 0.30 0.75 0.75 94 1003.8
20260507165016 49 158 1.0 3.0 0.31 0.74 0.74 94 1003.9
20260507164516 49 0.0 3.0 0.35 0.74 0.74 94 1003.4
20260507164016 49 135 1.0 3.0 0.38 0.74 0.74 94 1003.4
20260507163516 49 0.0 1.0 0.41 0.73 0.73 94 1003.6
20260507163016 49 135 1.0 2.0 0.43 0.73 0.73 94 1003.6
20260507162516 49 158 1.0 3.0 0.43 0.73 0.73 94 1003.5
20260507162016 49 135 1.0 5.0 0.43 0.72 0.72 94 1003.4
20260507161516 49 113 1.0 3.0 0.42 0.70 0.70 94 1004.0
20260507161016 49 135 1.0 3.0 0.38 0.65 0.66 94 1004.6
20260507160516 49 135 1.0 3.0 0.32 0.60 0.60 94 1005.0
20260507160015 49 0.0 3.0 0.26 0.53 0.53 94 1004.8
20260507155516 49 0.0 1.0 0.19 0.45 0.45 94 1004.3
20260507155016 49 0.0 2.0 0.17 0.43 0.43 94 1004.3
20260507154516 49 113 1.0 3.0 0.14 0.39 0.39 94 1004.6
20260507154016 49 135 1.0 2.0 0.12 0.36 0.36 94 1004.3
20260507153516 49 203 1.0 5.0 0.08 0.32 0.32 94 1004.7
20260507153015 49 0.0 2.0 0.06 0.31 0.31 94 1004.7
20260507152516 49 135 1.0 3.0 0.06 0.30 0.30 94 1004.9
20260507152016 49 225 1.0 6.0 0.05 0.29 0.29 94 1005.3
20260507151516 49 135 1.0 7.0 0.04 0.28 0.28 94 1005.3
20260507151016 49 135 1.0 4.0 0.03 0.28 0.28 94 1004.9
20260507150516 49 135 1.0 8.0 0.04 0.28 0.28 94 1004.8
20260507150015 49 180 2.0 6.0 0.03 0.27 0.27 94 1004.9
20260507145516 49 135 2.0 10.0 0.03 0.26 0.26 94 1004.9
20260507145016 49 203 2.0 6.0 0.02 0.25 0.26 94 1005.1
20260507144516 49 135 2.0 7.0 0.02 0.25 0.25 94 1005.3
20260507144016 49 158 2.0 5.0 0.02 0.24 0.24 94 1005.3
20260507143516 49 158 2.0 6.0 0.02 0.24 0.24 94 1005.4
20260507143016 49 135 2.0 7.0 0.02 0.24 0.24 94 1005.4
20260507142516 49 158 2.0 8.0 0.02 0.24 0.24 94 1005.5
20260507142016 49 135 2.0 4.0 0.02 0.24 0.24 94 1005.6
20260507141516 49 135 3.0 12.0 0.02 0.24 0.24 94 1005.7
20260507141016 49 158 2.0 6.0 0.02 0.24 0.24 94 1005.3
20260507140515 49 135 3.0 7.0 0.02 0.24 0.24 94 1005.4
20260507140016 49 225 2.0 13.0 0.02 0.24 0.24 94 1005.8
20260507135515 49 135 3.0 9.0 0.01 0.23 0.23 94 1005.9
20260507135015 49 225 4.0 10.0 0.01 0.23 0.23 94 1005.9
20260507134515 49 158 3.0 13.0 0.01 0.23 0.23 94 1006.1
20260507134016 49 135 2.0 8.0 0.01 0.23 0.23 94 1006.1
20260507133516 49 158 2.0 7.0 0.01 0.23 0.23 94 1006.1
20260507133016 49 158 3.0 11.0 0.02 0.23 0.23 94 1006.1
20260507132516 49 113 2.0 7.0 0.02 0.23 0.23 94 1006.3
20260507132016 49 158 3.0 10.0 0.02 0.23 0.23 94 1006.3
20260507131516 49 158 2.0 9.0 0.02 0.23 0.23 94 1006.3
20260507131016 49 135 2.0 6.0 0.02 0.23 0.23 94 1006.3
20260507130516 49 135 3.0 8.0 0.01 0.22 0.22 94 1006.5
20260507130015 49 135 2.0 6.0 0.02 0.22 0.22 94 1006.7
20260507125516 49 158 3.0 7.0 0.02 0.22 0.22 94 1007.0
20260507125016 49 135 3.0 7.0 0.02 0.22 0.22 94 1007.2
20260507124516 49 158 3.0 11.0 0.03 0.22 0.22 94 1007.2
20260507124016 49 158 3.0 8.0 0.03 0.22 0.22 94 1007.3
20260507123516 49 158 2.0 7.0 0.04 0.22 0.22 94 1007.4
20260507123015 49 158 3.0 8.0 0.04 0.21 0.21 94 1007.5
20260507122516 49 158 3.0 8.0 0.04 0.21 0.21 94 1007.5
20260507122016 49 158 4.0 9.0 0.05 0.21 0.21 94 1007.4
20260507121516 49 158 3.0 10.0 0.06 0.21 0.21 94 1007.5
20260507121016 50 203 4.0 8.0 0.07 0.21 0.21 94 1007.3
20260507120516 50 203 3.0 8.0 0.09 0.21 0.21 94 1007.1
20260507120016 50 158 3.0 11.0 0.09 0.20 0.20 94 1007.3
20260507115516 50 158 2.0 8.0 0.10 0.20 0.20 94 1007.3
20260507115016 50 158 2.0 8.0 0.10 0.20 0.20 94 1007.4
20260507114516 49 180 2.0 7.0 0.09 0.19 0.19 94 1007.4
20260507114016 49 135 2.0 7.0 0.10 0.19 0.19 94 1007.7
20260507113516 49 180 3.0 9.0 0.09 0.18 0.18 94 1007.6
20260507113016 49 113 2.0 11.0 0.09 0.17 0.17 94 1007.6
20260507112516 49 158 2.0 6.0 0.09 0.17 0.17 94 1007.6
20260507112015 49 135 3.0 7.0 0.09 0.17 0.17 94 1007.6
20260507111516 49 135 2.0 6.0 0.07 0.15 0.15 94 1007.8
20260507111015 49 158 3.0 7.0 0.06 0.14 0.14 94 1007.9
20260507110515 50 135 3.0 8.0 0.05 0.13 0.13 94 1008.0
20260507110016 49 158 3.0 8.0 0.04 0.12 0.12 94 1008.1
20260507105515 49 135 3.0 7.0 0.02 0.10 0.10 94 1008.1
20260507105015 49 158 2.0 7.0 0.02 0.09 0.09 94 1008.0
20260507104516 49 135 2.0 5.0 0.02 0.09 0.09 93 1008.1
20260507104016 49 135 3.0 10.0 0.02 0.09 0.09 93 1008.1
20260507103516 49 135 2.0 6.0 0.05 0.09 0.09 94 1008.2
20260507103016 49 135 2.0 5.0 0.06 0.09 0.09 94 1008.2
20260507102516 49 158 3.0 8.0 0.06 0.08 0.08 93 1008.3
20260507102016 49 135 3.0 7.0 0.06 0.08 0.08 93 1008.4
20260507101516 48 135 3.0 9.0 0.06 0.08 0.08 93 1008.6
20260507101016 48 135 2.0 7.0 0.07 0.08 0.08 93 1008.5
20260507100516 48 135 2.0 6.0 0.07 0.08 0.08 93 1008.6
20260507100016 48 135 3.0 10.0 0.07 0.08 0.08 93 1008.7
20260507095516 48 158 3.0 7.0 0.08 0.08 0.08 93 1008.6
20260507095016 48 135 2.0 6.0 0.08 0.08 0.08 93 1008.6
20260507094516 48 158 1.0 5.0 0.07 0.07 0.07 92 1008.6
20260507094016 48 135 2.0 8.0 0.06 0.06 0.06 92 1008.7
20260507093517 48 135 2.0 5.0 0.04 0.04 0.04 92 1008.9
20260507093017 47 158 2.0 7.0 0.03 0.03 0.03 92 1008.5
20260507092516 47 158 2.0 6.0 0.02 0.02 0.02 91 1008.6
20260507092016 47 158 2.0 6.0 0.02 0.02 0.02 91 1008.5
20260507091517 47 135 1.0 4.0 0.02 0.02 0.02 91 1008.6
20260507091016 48 135 2.0 6.0 0.01 0.01 0.01 91 1008.6
20260507090516 47 135 2.0 5.0 0.01 0.01 0.01 90 1008.8
20260507090016 47 135 2.0 7.0 0.01 0.01 0.01 90 1008.7
20260507085517 47 135 2.0 4.0 0.00 0.00 0.00 90 1008.8
20260507085016 47 135 1.0 5.0 0.00 0.00 0.00 90 1008.9
20260507084516 47 0.0 3.0 0.00 0.00 0.00 90 1009.1
20260507084016 47 0.0 4.0 0.00 0.00 0.00 90 1009.0
20260507083516 47 135 1.0 3.0 0.00 0.00 0.00 90 1009.3
20260507083016 47 135 1.0 4.0 0.00 0.00 0.00 89 1009.3
20260507082516 47 135 1.0 2.0 0.00 0.00 0.00 89 1009.4
20260507082017 47 135 1.0 3.0 0.00 0.00 0.00 89 1009.6
20260507081536 47 158 2.0 5.0 0.00 0.00 0.00 88 1009.7
20260507081016 47 135 2.0 11.0 0.00 0.00 0.00 87 1009.7
20260507080516 48 135 2.0 7.0 0.00 0.00 0.00 87 1009.7
20260507080016 48 135 1.0 3.0 0.00 0.00 0.00 87 1009.7
20260507075516 48 158 1.0 4.0 0.00 0.00 0.00 87 1009.9
20260507075016 48 135 1.0 2.0 0.00 0.00 0.00 87 1009.8
20260507074516 48 135 1.0 3.0 0.00 0.00 0.00 87 1009.9
20260507074016 48 135 1.0 4.0 0.00 0.00 0.00 87 1010.1
20260507073516 48 113 1.0 5.0 0.00 0.00 0.00 87 1010.3
20260507073016 48 135 1.0 4.0 0.00 0.00 0.00 86 1010.2
20260507072516 48 180 2.0 5.0 0.00 0.00 0.00 86 1010.1
20260507072016 49 158 4.0 12.0 0.00 0.00 0.00 86 1010.1
20260507071516 48 113 2.0 8.0 0.00 0.00 0.00 86 1010.3
20260507071016 48 135 1.0 5.0 0.00 0.00 0.00 86 1010.0
20260507070516 49 135 2.0 3.0 0.00 0.00 0.00 86 1010.3
20260507070016 49 113 2.0 6.0 0.00 0.00 0.00 85 1010.4
20260507065516 49 158 1.0 4.0 0.00 0.00 0.00 85 1010.5
20260507065015 50 158 2.0 6.0 0.00 0.00 0.00 85 1010.5
20260507064516 50 135 2.0 5.0 0.00 0.00 0.00 86 1010.2
20260507064018 49 158 2.0 7.0 0.00 0.00 0.00 86 1010.4
20260507063516 49 135 2.0 8.0 0.00 0.00 0.00 86 1010.7
20260507063016 49 158 1.0 7.0 0.00 0.00 0.00 86 1010.9
20260507062516 49 135 2.0 6.0 0.00 0.00 0.00 87 1011.1
20260507062016 49 158 2.0 7.0 0.00 0.00 0.00 87 1011.1
20260507061516 49 225 1.0 4.0 0.00 0.00 0.00 86 1011.0
20260507061016 49 158 2.0 4.0 0.00 0.00 0.00 86 1010.7
20260507060516 49 135 2.0 5.0 0.00 0.00 0.00 87 1010.7
20260507060016 49 0.0 2.0 0.00 0.00 0.00 87 1011.0
20260507055515 49 135 1.0 3.0 0.00 0.00 0.00 87 1011.2
20260507055016 49 225 1.0 3.0 0.00 0.00 0.00 87 1010.9
20260507054516 49 113 1.0 5.0 0.00 0.00 0.00 86 1011.7
20260507054016 49 158 1.0 3.0 0.00 0.00 0.00 86 1011.8
20260507053515 49 135 1.0 5.0 0.00 0.00 0.00 86 1011.8
20260507053016 49 135 1.0 6.0 0.00 0.00 0.00 86 1012.1
20260507052515 49 135 1.0 4.0 0.00 0.00 0.00 86 1012.3
20260507052016 49 135 1.0 6.0 0.00 0.00 0.00 86 1012.6
20260507051516 49 180 1.0 6.0 0.00 0.00 0.00 86 1012.7
20260507051015 49 225 1.0 4.0 0.00 0.00 0.00 86 1012.9
20260507050516 49 158 1.0 4.0 0.00 0.00 0.00 85 1012.9
20260507050016 49 158 2.0 5.0 0.00 0.00 0.00 85 1013.0
20260507045516 50 135 1.0 5.0 0.00 0.00 0.00 85 1013.1
20260507045016 50 135 2.0 9.0 0.00 0.00 0.00 85 1013.4
20260507044515 50 135 1.0 3.0 0.00 0.00 0.00 86 1013.3
20260507044015 50 158 2.0 8.0 0.00 0.00 0.00 86 1013.5
20260507043515 49 113 1.0 4.0 0.00 0.00 0.00 86 1013.5
20260507043016 49 135 1.0 7.0 0.00 0.00 0.00 87 1013.5
20260507042516 49 113 1.0 5.0 0.00 0.00 0.00 87 1013.5
20260507042017 49 135 1.0 3.0 0.00 0.00 0.00 87 1013.6
20260507041515 49 0.0 2.0 0.00 0.00 0.00 87 1013.7
20260507041016 48 0.0 2.0 0.00 0.00 0.00 87 1013.9
20260507040516 48 135 1.0 2.0 0.00 0.00 0.00 87 1013.9
20260507040016 48 135 1.0 3.0 0.00 0.00 0.00 87 1013.8
20260507035516 48 135 1.0 3.0 0.00 0.00 0.00 87 1013.9
20260507035016 48 135 2.0 3.0 0.00 0.00 0.00 87 1013.9
20260507034516 48 135 1.0 2.0 0.00 0.00 0.00 87 1014.1
20260507034015 48 135 1.0 3.0 0.00 0.00 0.00 87 1014.3
20260507033515 48 158 1.0 3.0 0.00 0.00 0.00 87 1014.4
20260507033016 48 113 1.0 3.0 0.00 0.00 0.00 87 1014.5
20260507032516 48 135 1.0 3.0 0.00 0.00 0.00 87 1014.6
20260507032016 48 135 1.0 3.0 0.00 0.00 0.00 87 1014.6
20260507031516 48 158 1.0 2.0 0.00 0.00 0.00 87 1014.6
20260507031016 48 135 2.0 4.0 0.00 0.00 0.00 87 1014.6
20260507030516 48 135 1.0 3.0 0.00 0.00 0.00 88 1014.7
20260507030016 48 0.0 0.0 0.00 0.00 0.00 88 1014.9
20260507025516 47 113 1.0 3.0 0.00 0.00 0.00 87 1014.9
20260507025016 47 135 1.0 3.0 0.00 0.00 0.00 87 1015.1
20260507024516 47 135 1.0 2.0 0.00 0.00 0.00 87 1015.2
20260507024016 47 135 1.0 3.0 0.00 0.00 0.00 87 1015.4
20260507023516 47 113 1.0 3.0 0.00 0.00 0.00 87 1015.4
20260507023016 47 113 1.0 4.0 0.00 0.00 0.00 87 1015.6
20260507022516 47 0.0 2.0 0.00 0.00 0.00 87 1015.8
20260507022016 47 135 1.0 3.0 0.00 0.00 0.00 87 1015.7
20260507021517 47 0.0 2.0 0.00 0.00 0.00 87 1015.9
20260507021016 47 0.0 3.0 0.00 0.00 0.00 87 1015.9
20260507020517 47 135 1.0 4.0 0.00 0.00 0.00 87 1016.0
20260507020016 47 135 1.0 4.0 0.00 0.00 0.00 87 1015.9
20260507015516 48 158 1.0 5.0 0.00 0.00 0.00 87 1016.0
20260507015017 48 135 2.0 5.0 0.00 0.00 0.00 87 1016.0
20260507014516 47 135 1.0 3.0 0.00 0.00 0.00 87 1016.1
20260507014016 47 135 1.0 4.0 0.00 0.00 0.00 87 1016.1
20260507013516 48 135 1.0 3.0 0.00 0.00 0.00 87 1016.2
20260507013016 48 135 1.0 3.0 0.00 0.00 0.00 86 1016.2
20260507012516 48 113 1.0 4.0 0.00 0.00 0.00 86 1016.3
20260507012016 48 225 1.0 7.0 0.00 0.00 0.00 86 1016.4
20260507011516 48 135 1.0 3.0 0.00 0.00 0.00 86 1016.5
20260507011016 48 135 1.0 6.0 0.00 0.00 0.00 85 1016.5
20260507010516 48 135 1.0 3.0 0.00 0.00 0.00 85 1016.6
20260507010016 48 135 1.0 4.0 0.00 0.00 0.00 85 1016.6
20260507005516 49 135 2.0 5.0 0.00 0.00 0.00 85 1016.6
20260507005016 49 135 1.0 4.0 0.00 0.00 0.00 85 1016.7
20260507004516 49 135 2.0 5.0 0.00 0.00 0.00 85 1016.7
20260507004016 49 135 1.0 4.0 0.00 0.00 0.00 85 1016.8
20260507003516 49 158 1.0 4.0 0.00 0.00 0.00 84 1016.7
20260507003016 49 225 1.0 5.0 0.00 0.00 0.00 84 1016.8
20260507002516 49 158 1.0 4.0 0.00 0.00 0.00 84 1016.7
20260507002016 49 158 1.0 3.0 0.00 0.00 0.00 83 1016.8
20260507001516 49 135 1.0 2.0 0.00 0.00 0.00 83 1016.7
20260507001016 49 135 1.0 6.0 0.00 0.00 0.00 83 1016.7
20260507000516 49 135 1.0 4.0 0.00 0.00 0.00 83 1016.7
20260507000016 49 135 1.0 4.0 0.00 0.00 0.00 83 1016.6
20260506235516 49 158 1.0 5.0 0.00 0.00 0.00 82 1016.6
20260506235016 49 135 1.0 3.0 0.00 0.00 0.00 82 1016.5
20260506234516 50 135 2.0 4.0 0.00 0.00 0.00 81 1016.5
20260506234016 50 135 1.0 5.0 0.00 0.00 0.00 81 1016.5
20260506233516 50 135 2.0 4.0 0.00 0.00 0.00 81 1016.5
20260506233017 50 135 2.0 5.0 0.00 0.00 0.00 81 1016.6
20260506232516 50 135 2.0 7.0 0.00 0.00 0.00 81 1016.6
20260506232016 51 158 2.0 5.0 0.00 0.00 0.00 80 1016.6
20260506231516 51 135 1.0 3.0 0.00 0.00 0.00 80 1016.7
20260506231016 51 135 2.0 7.0 0.00 0.00 0.00 79 1016.6
20260506230516 52 135 2.0 5.0 0.00 0.00 0.00 79 1016.7
20260506230017 52 135 2.0 5.0 0.00 0.00 0.00 79 1016.6
20260506225516 52 158 2.0 5.0 0.00 0.00 0.00 79 1016.6
20260506225016 52 135 2.0 5.0 0.00 0.00 0.00 78 1016.7
20260506224517 53 135 2.0 6.0 0.00 0.00 0.00 78 1016.7
20260506224016 53 158 1.0 4.0 0.00 0.00 0.00 78 1016.7
20260506223516 53 135 2.0 6.0 0.00 0.00 0.00 78 1016.8
20260506223016 53 158 2.0 8.0 0.00 0.00 0.00 78 1016.9
20260506222516 53 180 2.0 7.0 0.00 0.00 0.00 78 1016.9
20260506222016 53 135 2.0 4.0 0.00 0.00 0.00 78 1016.7
20260506221516 54 135 2.0 5.0 0.00 0.00 0.00 78 1016.8
20260506221016 54 135 2.0 7.0 0.00 0.00 0.00 78 1016.7
20260506220516 54 135 2.0 6.0 0.00 0.00 0.00 78 1016.6
20260506220016 54 158 3.0 7.0 0.00 0.00 0.00 77 1016.7
20260506215516 54 158 3.0 10.0 0.00 0.00 0.00 77 1016.7
20260506215016 54 135 2.0 6.0 0.00 0.00 0.00 77 1016.8
20260506214516 55 135 3.0 8.0 0.00 0.00 0.00 76 1016.7
20260506214016 55 113 2.0 5.0 0.00 0.00 0.00 76 1016.7
20260506213516 55 158 2.0 7.0 0.00 0.00 0.00 75 1016.6
20260506213016 56 135 3.0 8.0 0.00 0.00 0.00 75 1016.6
20260506212516 57 158 3.0 6.0 0.00 0.00 0.00 75 1016.6
20260506212016 57 225 3.0 9.0 0.00 0.00 0.00 75 1016.6
20260506211516 58 135 3.0 8.0 0.00 0.00 0.00 74 1016.5
20260506211016 58 158 3.0 8.0 0.00 0.00 0.00 74 1016.3
20260506210516 58 135 4.0 12.0 0.00 0.00 0.00 74 1016.3
20260506210016 59 135 4.0 13.0 0.00 0.00 0.00 74 1016.3
20260506205516 59 158 4.0 12.0 0.00 0.00 0.00 73 1016.4
20260506205016 60 135 3.0 13.0 0.00 0.00 0.00 73 1016.5
20260506204516 60 158 3.0 8.0 0.00 0.00 0.00 72 1016.5
20260506204016 61 135 4.0 10.0 0.00 0.00 0.00 72 1016.5
20260506203516 61 158 4.0 12.0 0.00 0.00 0.00 71 1016.6